OpenBCM V2.0.2 (Linux)

Packet Radio Mailbox

IZ3LSV

[San Dona' di P. JN]

 Login: GUEST





  
KV7J   > KEP      18.02.09 04:27l 74 Lines 2995 Bytes #999 (0) @ WW
BID : ARLK014
Read: GUEST
Subj: ARLK014 Keplerian data
Path: IZ3LSV<IK3GET<IW2OHX<IK2QCA<I4UKI<IK6ZDE<VE2GPQ<WA7V<KV7J
Sent: 090217/1641Z @:KV7J.#WNV.NV.USA.NOAM #:16662 [Carson City] FBB7.00i $:ARL
From: KV7J@KV7J.#WNV.NV.USA.NOAM
To  : KEP@ARL


ZCZC SK14
QST de W1AW  
Keplerian Bulletin 14  ARLK014
From ARRL Headquarters
Newington, CT  February 17, 2009
To all radio amateurs 

SB KEP ARL ARLK014
ARLK014 Keplerian data

Special thanks to AMSAT-NA (AMSAT.ORG) for the following Keplerian
data.

Decode 2-line elsets with the following key:
1 AAAAAU 00  0  0 BBBBB.BBBBBBBB  .CCCCCCCC  00000-0  00000-0 0  DDDZ
2 AAAAA EEE.EEEE FFF.FFFF GGGGGGG HHH.HHHH III.IIII JJ.JJJJJJJJKKKKKZ
KEY: A-CATALOGNUM B-EPOCHTIME C-DECAY D-ELSETNUM E-INCLINATION F-RAAN
G-ECCENTRICITY H-ARGPERIGEE I-MNANOM J-MNMOTION K-ORBITNUM Z-CHECKSUM

AO-07
1 07530U 74089B   09047.66092581 -.00000027 +00000-0 +10000-3 0 04056
2 07530 101.4406 076.7099 0012041 144.2282 215.9595 12.53575368567618
UO-11
1 14781U 84021B   09047.64457294 -.00000090  00000-0 -48005-5 0  8887
2 14781 098.1253 090.9180 0009189 012.9027 347.2393 14.79694355340007
AO-16
1 20439U 90005D   09047.79833719 +.00000002 +00000-0 +16175-4 0 05373
2 20439 098.2638 021.7716 0010881 164.0362 196.1163 14.31816033995921
AO-27
1 22825U 93061C   09047.80490091 +.00000111 +00000-0 +60273-4 0 01806
2 22825 098.4216 005.1141 0007515 259.1502 100.8843 14.29259267802714
IO-26
1 22826U 93061D   09047.88624470 +.00000007 +00000-0 +19412-4 0 08984
2 22826 098.4140 005.9935 0008061 255.2653 104.7636 14.29509596802829
FO-29
1 24278U 96046B   09048.49530204 -.00000006  00000-0  33482-4 0  9739
2 24278 098.5716 298.5063 0350109 300.5685 056.1348 13.52942464617561
GO-32
1 25397U 98043D   09047.63764367 -.00000174  00000-0 -59051-4 0  8236
2 25397 098.3385 076.3700 0000460 208.8028 151.3133 14.23154241550986
ISS
1 25544U 98067A   09048.56374506  .00008452  00000-0  70712-4 0  2912
2 25544 051.6392 199.5474 0009252 035.8640 051.0697 15.70949071587136
NO-44
1 26931U 01043C   09047.87847025 -.00000008 +00000-0 +29379-4 0 01018
2 26931 067.0536 014.2881 0005568 258.2699 101.7774 14.29547739385384
SO-50
1 27607U 02058C   09048.43396823 -.00000090  00000-0  83012-5 0  8163
2 27607 064.5573 028.7993 0079132 231.2812 128.1208 14.71414583331055
CO-55
1 27844U 03031E   09048.25967118  .00000024  00000-0  31649-4 0  5137
2 27844 098.7159 059.1070 0010400 126.0725 234.1426 14.20622552292235
AO-51
1 28375U 04025K   09047.60028569 +.00000002 +00000-0 +12958-4 0 03199
2 28375 098.0564 064.2100 0084206 130.5131 230.3435 14.40633114243596
VO-52
1 28650U 05017B   09047.69826167  .00000152  00000-0  25763-4 0  1569
2 28650 097.7574 113.1809 0028272 064.1870 296.2236 14.81554205204801
CO-58
1 28895U 05043F   09047.69848737 +.00000097 +00000-0 +29803-4 0 02351
2 28895 098.0767 301.5900 0018103 008.6131 351.5390 14.59742241176156
DO-64
1 32789U 08021G   09047.74831925 +.00000602 +00000-0 +83282-4 0 02997
2 32789 097.9626 112.6479 0016731 065.4089 294.8864 14.81616642043614

Keplerian bulletins are transmitted twice weekly from W1AW.  The
next scheduled transmission of these data will be Friday, February 
20, 2009, at 2330z on Baudot and AMTOR.
NNNN


Read previous mail | Read next mail


 04.05.2026 10:46:17lGo back Go up